[[{"header":{"parameterUnit":"m.s-1","parameterCategory":1,"la1":30.2991,"la2":30.254,"lo1":-89.0895,"lo2":-89.0444,"dy":0.0017,"dx":0.0017,"nx":28,"ny":28,"refTime":"2025-04-02T09:00:00:Z","depth":0,"parameterNumber":2,"parameterNumberName":"U-component_of_WINDS"},"data":[0,0,0,0,0,0,0,0,0,0,0,0,0,0,0,0,0,0,0,0,0,0,0,0,0,0,0,0,0,0,0,0,0,0,0,0,0,0,0,0,0,0,0,0,0,0,0,0,0,0,0,0,0,0,0,0,0,0,-4.2081,-4.2082,0,-4.2218,-4.2219,-4.2221,-4.2248,-4.2247,-4.2246,-4.2245,-4.2385,-4.2389,-4.2394,0,0,0,0,0,0,0,0,0,0,0,0,0,-4.1842,-4.1846,-4.208,-4.2082,-4.2084,-4.2218,-4.2219,-4.2221,-4.2248,-4.2247,-4.2245,-4.2244,-4.2383,-4.2389,-4.2394,0,0,0,0,0,0,0,0,0,0,0,0,0,-4.1959,-4.1847,-4.208,-4.2113,-4.2118,-4.2217,-4.222,-4.2222,-4.2248,-4.2247,-4.2245,-4.2243,-4.2381,-4.2388,-4.2395,-4.2471,0,0,-4.2417,-4.242,0,0,0,0,0,0,0,0,-4.1952,-4.1968,-4.2107,-4.2111,-4.2116,-4.2214,-4.2187,-4.2306,-4.2249,-4.2199,-4.2245,-4.2243,-4.2329,-4.234,-4.237,-4.2478,-4.2484,-4.2418,-4.2422,-4.2425,-4.2427,0,0,0,0,0,0,0,-4.1944,-4.1962,-4.2135,-4.2109,-4.2115,-4.2121,-4.2136,-4.2209,-4.2271,-4.2203,-4.2205,-4.2221,-4.2331,-4.2363,-4.2373,-4.2486,-4.2417,-4.2424,-4.2428,-4.2431,-4.2664,-4.2666,0,0,0,0,0,0,-4.193,-4.1955,-4.213,-4.2139,-4.2029,-4.2127,-4.2144,-4.2184,-4.2271,-4.2282,-4.2222,-4.2222,-4.2352,-4.2365,-4.2378,-4.2473,-4.2425,-4.2431,-4.2436,-4.2662,-4.2665,-4.2667,0,0,0,0,0,0,-4.1925,-4.1945,-4.2125,-4.2048,-4.2071,-4.2133,-4.2178,-4.2188,-4.2219,-4.2285,-4.2296,-4.2243,-4.2351,-4.2368,-4.2448,-4.2478,-4.2435,-4.2441,-4.266,-4.2663,-4.2666,-4.2663,0,0,0,0,0,0,-4.1918,-4.1943,-4.1973,-4.2048,-4.2075,-4.2192,-4.218,-4.2192,-4.2231,-4.2232,-4.2308,-4.2318,-4.2351,-4.2437,-4.2455,-4.2487,-4.2447,-4.2658,-4.2661,-4.2665,-4.266,-4.2665,-4.2669,0,0,0,0,0,-4.1909,-4.1966,-4.1974,-4.1995,-4.2113,-4.2194,-4.2209,-4.2245,-4.2234,-4.2264,-4.2306,-4.2316,-4.2473,-4.2445,-4.2466,-4.25,-4.2656,-4.266,-4.2665,-4.2658,-4.2664,-4.2669,0,0,0,0,0,0,-4.1892,-4.1977,-4.1986,-4.2069,-4.2124,-4.2198,-4.2237,-4.225,-4.231,-4.2308,-4.235,-4.2367,-4.2445,-4.2481,-4.2449,-4.2579,-4.2563,-4.2572,-4.2552,-4.2558,-4.2562,-4.2551,-4.2453,0,0,0,0,0,-4.1898,-4.1957,-4.2028,-4.2094,-4.2121,-4.2174,-4.2211,-4.2234,-4.2293,-4.2316,-4.2365,-4.2421,-4.2483,-4.2523,-4.2584,-4.2667,-4.2683,-4.2701,-4.2705,-4.2708,-4.2715,-4.2761,-4.277,-4.2681,-4.2681,-4.2681,0,0,-4.1911,-4.1964,-4.1999,-4.2092,-4.2137,-4.2197,-4.2194,-4.2257,-4.2302,-4.2326,-4.2404,-4.2442,-4.2508,-4.259,-4.2628,-4.2622,-4.2743,-4.2714,-4.2716,-4.2721,-4.2767,-4.2775,-4.2782,-4.2684,-4.2684,-4.2683,0,0,-4.1964,-4.2011,-4.2071,-4.2117,-4.2186,-4.2221,-4.2236,-4.2309,-4.2335,-4.2414,-4.2433,-4.2488,-4.2594,-4.264,-4.2677,-4.275,-4.2761,-4.2769,-4.2791,-4.2836,-4.2843,-4.2849,-4.2875,-4.2883,-4.2775,-4.2775,-4.2775,0,-4.1971,-4.2062,-4.2101,-4.2163,-4.2204,-4.2229,-4.2291,-4.2334,-4.2419,-4.2446,-4.2439,-4.2573,-4.2619,-4.2712,-4.273,-4.2759,-4.2777,-4.2759,-4.2839,-4.2846,-4.2852,-4.2877,-4.2886,-4.2776,-4.2776,-4.2776,-4.2776,0,-4.2067,-4.2129,-4.217,-4.2252,-4.2297,-4.2359,-4.2407,-4.2449,-4.2469,-4.2505,-4.2586,-4.2643,-4.2715,-4.274,-4.276,-4.2836,-4.283,-4.2831,-4.2816,-4.286,-4.2884,-4.2894,-4.2776,-4.2776,-4.2776,-4.2776,0,0,-4.2111,-4.2215,-4.2229,-4.2266,-4.2345,-4.2394,-4.2458,-4.2529,-4.2564,-4.2623,-4.2676,-4.2766,-4.2767,-4.281,-4.2836,-4.2876,-4.2929,-4.2871,-4.2873,-4.2879,-4.3016,-4.3014,-4.3024,-4.2938,-4.294,-4.2941,-4.301,0,-4.2173,-4.2286,-4.2324,-4.2418,-4.2477,-4.2503,-4.2558,-4.2613,-4.2649,-4.2704,-4.2744,-4.2807,-4.2804,-4.283,-4.287,-4.2914,-4.2957,-4.291,-4.2988,-4.299,-4.2969,-4.3037,-4.3035,-4.3097,-4.302,-4.3022,-4.3023,0,-4.226,-4.232,-4.242,-4.2492,-4.2518,-4.2567,-4.2636,-4.2688,-4.2751,-4.2775,-4.2823,-4.2846,-4.2914,-4.2896,-4.299,-4.2957,-4.2992,-4.3018,-4.3022,-4.3029,-4.3008,-4.3045,-4.3118,-4.3127,-4.3038,-4.3037,-4.3036,0,-4.2281,-4.2387,-4.2461,-4.2492,-4.2578,-4.2612,-4.265,-4.2711,-4.2752,-4.2812,-4.2839,-4.2907,-4.2943,-4.2996,-4.3037,-4.302,-4.3127,-4.3113,-4.3148,-4.3147,-4.3167,-4.3165,-4.3245,-4.3192,-4.3192,-4.3192,-4.3192,0,-4.2345,-4.2405,-4.2471,-4.2516,-4.2585,-4.2628,-4.2694,-4.2733,-4.2788,-4.2841,-4.2869,-4.2918,-4.297,-4.3027,-4.306,-4.3132,-4.3149,-4.317,-4.3177,-4.3166,-4.3163,-4.3188,-4.3184,-4.3194,-4.3194,-4.3193,-4.3193,0,-4.238,-4.2426,-4.2508,-4.2583,-4.2604,-4.2651,-4.2715,-4.276,-4.2798,-4.2865,-4.2884,-4.2943,-4.3011,-4.3058,-4.3145,-4.3168,-4.3246,-4.3254,-4.3224,-4.3228,-4.326,-4.3256,-4.3358,-4.3373,-4.331,-4.3311,-4.3311,0,-4.2417,-4.2464,-4.2544,-4.2582,-4.2619,-4.268,-4.2722,-4.2767,-4.2809,-4.2885,-4.2921,-4.2991,-4.3049,-4.3157,-4.3208,-4.3275,-4.3284,-4.3315,-4.3294,-4.3282,-4.3283,-4.3279,-4.3284,-4.3318,-4.3318,-4.3319,-4.3319,0,-4.2478,-4.2499,-4.2558,-4.2626,-4.2675,-4.2731,-4.2786,-4.2816,-4.2871,-4.2917,-4.2987,-4.3033,-4.3122,-4.3191,-4.3264,-4.3303,-4.332,-4.3326,-4.3337,-4.3326,-4.3306,-4.3316,-4.3232,-4.3323,-4.3322,-4.3322,-4.3322,-4.3322,-4.2514,-4.2557,-4.262,-4.2686,-4.2732,-4.2784,-4.283,-4.2874,-4.2933,-4.301,-4.3033,-4.3106,-4.3168,-4.3267,-4.3308,-4.3366,-4.3363,-4.338,-4.3384,-4.3387,-4.3386,-4.3298,-4.3379,-4.3379,-4.3379,-4.3379,-4.3379,0,-4.2576,-4.2618,-4.2678,-4.2755,-4.2806,-4.2819,-4.2882,-4.2924,-4.2988,-4.3045,-4.3102,-4.3182,-4.325,-4.3307,-4.3377,-4.3413,-4.3422,-4.3429,-4.3426,-4.3435,-4.3385,-4.3367,-4.342,-4.342,-4.342,-4.342,-4.342,-4.342,-4.2613,-4.2686,-4.2715,-4.2812,-4.2854,-4.2926,-4.296,-4.3008,-4.3054,-4.3143,-4.3199,-4.3236,-4.3294,-4.3368,-4.3431,-4.3446,-4.347,-4.3475,-4.3492,-4.3443,-4.3439,-4.3434,-4.3418,-4.348,-4.348,-4.3537,-4.3538,-4.3538]},{"header":{"parameterUnit":"m.s-1","parameterCategory":1,"la1":30.2991,"la2":30.254,"lo1":-89.0895,"lo2":-89.0444,"dy":0.0017,"dx":0.0017,"nx":28,"ny":28,"refTime":"2025-04-02T09:00:00:Z","depth":0,"parameterNumber":3,"parameterNumberName":"V-component_of_WINDS"},"data":[0,0,0,0,0,0,0,0,0,0,0,0,0,0,0,0,0,0,0,0,0,0,0,0,0,0,0,0,0,0,0,0,0,0,0,0,0,0,0,0,0,0,0,0,0,0,0,0,0,0,0,0,0,0,0,0,0,0,6.6393,6.6394,0,6.6499,6.65,6.6501,6.6483,6.6481,6.6479,6.6477,6.6581,6.6586,6.659,0,0,0,0,0,0,0,0,0,0,0,0,0,6.6173,6.6177,6.6393,6.6394,6.6395,6.6498,6.65,6.6501,6.6483,6.6481,6.6479,6.6477,6.658,6.6585,6.659,0,0,0,0,0,0,0,0,0,0,0,0,0,6.6272,6.6178,6.6393,6.6399,6.6401,6.6498,6.65,6.6502,6.6484,6.6481,6.6478,6.6475,6.6578,6.6585,6.6591,6.6688,0,0,6.6612,6.6615,0,0,0,0,0,0,0,0,6.6267,6.628,6.6397,6.6399,6.6401,6.6475,6.646,6.6564,6.6484,6.6452,6.6477,6.6474,6.6548,6.6557,6.6582,6.6692,6.6697,6.6612,6.6616,6.6619,6.6621,0,0,0,0,0,0,0,6.626,6.6276,6.6434,6.6398,6.6401,6.6396,6.6407,6.648,6.6514,6.6455,6.6453,6.6466,6.6548,6.6576,6.6585,6.6698,6.6612,6.6618,6.6622,6.6625,6.6896,6.6899,0,0,0,0,0,0,6.6251,6.627,6.6431,6.6438,6.6326,6.6402,6.6414,6.6454,6.6513,6.6519,6.6469,6.6465,6.6566,6.6577,6.6588,6.6707,6.6619,6.6625,6.6629,6.6892,6.6896,6.69,0,0,0,0,0,0,6.6247,6.6266,6.6427,6.6354,6.6374,6.6409,6.6453,6.6457,6.6485,6.6524,6.6529,6.6491,6.6564,6.6579,6.6664,6.6711,6.6628,6.6635,6.6889,6.6894,6.6898,6.6945,0,0,0,0,0,0,6.6241,6.6264,6.6302,6.6355,6.6378,6.6502,6.6456,6.6461,6.6497,6.6494,6.6546,6.6552,6.6563,6.6654,6.6671,6.6718,6.664,6.6885,6.6891,6.6897,6.6939,6.695,6.696,0,0,0,0,0,6.6233,6.6309,6.6304,6.6323,6.6426,6.6504,6.6517,6.653,6.6501,6.6539,6.6564,6.6551,6.6703,6.6663,6.6681,6.6732,6.6882,6.6889,6.6896,6.6934,6.6948,6.696,0,0,0,0,0,0,6.6259,6.6316,6.6311,6.6407,6.6451,6.6501,6.6549,6.6543,6.6595,6.659,6.6601,6.6613,6.67,6.6724,6.6679,6.683,6.6788,6.6799,6.6811,6.6824,6.6835,6.6827,6.6645,0,0,0,0,0,6.6276,6.6336,6.6383,6.6463,6.6486,6.6514,6.6548,6.6555,6.66,6.6618,6.6649,6.6693,6.6751,6.6789,6.6844,6.6942,6.6954,6.6986,6.6997,6.7005,6.7015,6.7071,6.7086,6.6923,6.6923,6.6923,0,0,6.6311,6.635,6.6387,6.6469,6.6504,6.6566,6.6529,6.6596,6.6642,6.6628,6.6711,6.6736,6.6785,6.6878,6.6921,6.6901,6.7063,6.7014,6.7021,6.7026,6.708,6.7095,6.7109,6.6928,6.6927,6.6926,0,0,6.6409,6.6444,6.6516,6.6552,6.6607,6.6625,6.6643,6.6694,6.6711,6.6795,6.6787,6.6841,6.694,6.6976,6.7008,6.7122,6.7112,6.7139,6.7194,6.7248,6.7261,6.7273,6.7315,6.733,6.7148,6.7148,6.7149,0,6.6445,6.654,6.6553,6.6622,6.6658,6.6651,6.6724,6.6758,6.6827,6.6852,6.6829,6.6956,6.6988,6.7091,6.7119,6.7144,6.7165,6.7133,6.7259,6.727,6.7281,6.7322,6.7337,6.7152,6.7151,6.7151,6.7151,0,6.6583,6.6649,6.67,6.677,6.6812,6.6883,6.6906,6.6948,6.695,6.6971,6.7058,6.7097,6.7162,6.7186,6.7188,6.729,6.7276,6.7256,6.7214,6.73,6.7338,6.7353,6.7156,6.7155,6.7154,6.7153,0,0,6.6699,6.6777,6.6796,6.6828,6.6889,6.6939,6.701,6.7074,6.711,6.7158,6.7218,6.7303,6.7286,6.7322,6.7328,6.7376,6.7466,6.735,6.7351,6.7372,6.7582,6.7598,6.7616,6.746,6.7463,6.7465,6.7579,0,6.6803,6.6929,6.6944,6.7056,6.7118,6.7112,6.7174,6.7217,6.7239,6.7294,6.7317,6.7378,6.735,6.7372,6.7419,6.7445,6.7509,6.7437,6.7516,6.7518,6.7505,6.7636,6.7652,6.7758,6.7594,6.7596,6.7598,0,6.6941,6.6996,6.7115,6.717,6.7196,6.7251,6.7313,6.7365,6.7415,6.7427,6.7469,6.747,6.7543,6.7498,6.7599,6.755,6.7583,6.7601,6.7605,6.7614,6.7564,6.7649,6.7791,6.7808,6.7621,6.7619,6.7618,0,6.7016,6.7119,6.7205,6.7232,6.7297,6.7337,6.7365,6.7412,6.7451,6.7505,6.753,6.7591,6.7624,6.7671,6.7688,6.7654,6.7789,6.7745,6.7802,6.7801,6.7831,6.7829,6.7982,6.785,6.785,6.7849,6.7849,0,6.7131,6.7205,6.724,6.7292,6.7374,6.7391,6.7472,6.7498,6.7541,6.7598,6.7596,6.765,6.7669,6.7726,6.7739,6.7822,6.7836,6.7848,6.7852,6.785,6.7848,6.7872,6.7866,6.7854,6.7853,6.7852,6.7851,0,6.7229,6.7255,6.7348,6.7403,6.7419,6.7477,6.7524,6.7575,6.7596,6.7669,6.7687,6.7721,6.7788,6.781,6.789,6.79,6.7997,6.7992,6.7981,6.7982,6.8037,6.8033,6.8212,6.8237,6.8087,6.8089,6.809,0,6.7302,6.7358,6.7421,6.746,6.7491,6.7554,6.7595,6.7613,6.7655,6.7717,6.7761,6.7828,6.7883,6.799,6.8021,6.8083,6.8081,6.814,6.809,6.8088,6.8084,6.8081,6.8088,6.8149,6.8151,6.8152,6.8153,0,6.7428,6.7439,6.7499,6.7564,6.7613,6.7664,6.7713,6.7745,6.7771,6.7818,6.7888,6.7931,6.8015,6.8082,6.8145,6.8174,6.8169,6.8169,6.8185,6.8185,6.8177,6.8184,6.8008,6.8165,6.8163,6.8163,6.8162,6.8162,6.7517,6.7569,6.7621,6.7688,6.7728,6.7775,6.7826,6.7855,6.7914,6.7986,6.7992,6.8068,6.8117,6.8203,6.8235,6.8294,6.8277,6.8301,6.8307,6.8313,6.8319,6.8166,6.8305,6.8305,6.8305,6.8305,6.8304,0,6.7646,6.768,6.7741,6.7812,6.7865,6.7857,6.7912,6.7956,6.8024,6.8071,6.8126,6.8207,6.8272,6.831,6.8375,6.8416,6.8415,6.8432,6.843,6.8437,6.8329,6.8309,6.8432,6.8432,6.8432,6.8432,6.8432,6.8432,6.7719,6.7806,6.7824,6.7931,6.7964,6.804,6.8072,6.8116,6.8154,6.8246,6.8301,6.8325,6.8369,6.8438,6.8498,6.8507,6.8532,6.8552,6.8559,6.8458,6.8444,6.8432,6.8413,6.8556,6.8557,6.8663,6.8664,6.8665]}]]